This demonstration page uses our WeatherBlox Daily Observations layout. Learn more.

38.89511, -77.03637

Hourly Observations for April 17, 2017

Temp ( °F °C ) Dew Point ( °F °C ) Humidity (%) Winds ( mph kmh ) Pressure ( in mb ) Visibility ( mi km ) Precip ( " mm )
12:52 am 00:52 Partly Cloudy 74 23.3 55 12.8 52 52 WSW 12 19 29.97 1015 10 16.0934 0 0
1:52 am 01:52 Partly Cloudy 71 21.7 55 12.8 57 57 SW 6 9 29.96 1015 10 16.0934 0 0
2:52 am 02:52 Partly Cloudy 70 21.1 57 13.9 64 64 SW 3 6 29.95 1014 10 16.0934 0 0
3:52 am 03:52 Partly Cloudy 68 20 57 13.9 68 68 S 6 9 29.94 1014 10 16.0934 0 0
4:52 am 04:52 Mostly Cloudy 69 20.6 56 13.3 63 63 W 7 11 29.95 1014 10 16.0934 0 0
5:52 am 05:52 Mostly Cloudy 68 20 56 13.3 65 65 SW 7 11 29.96 1015 10 16.0934 0 0.0254
6:52 am 06:52 Mostly Cloudy 68 20 58 14.4 70 70 WSW 7 11 29.97 1015 10 16.0934 0 0.0254
7:52 am 07:52 Cloudy with Light Rain 69 20.6 59 15 70 70 WSW 9 15 29.99 1016 10 16.0934 0 0.0254
8:52 am 08:52 Mostly Cloudy 70 21.1 59 15 68 68 W 7 11 30 1016 10 16.0934 0 0.0254
9:52 am 09:52 Cloudy 73 22.8 59 15 62 62 NW 13 20 30.01 1016 10 16.0934 0 0
10:52 am 10:52 Cloudy with Light Rain 71 21.7 57 13.9 61 61 NNW 14 22 30.04 1017 10 16.0934 0 0.0254
11:52 am 11:52 Cloudy with Light Rain 64 17.8 60 15.6 87 87 N 15 24 30.07 1018 8 12.87472 0.01 0.254
12:28 pm 12:28 Cloudy with Light Rain 63 17 61 16 94 94 NNW 7 11 30.09 1019 5 8.0467 0 0
12:45 pm 12:45 Cloudy with Light Rain 64 17.8 56 13.3 75 75 N 10 17 30.09 1019 7 11.26538 0.06 1.524
12:52 pm 12:52 Cloudy with Light Rain 64 17.8 57 13.9 78 78 N 9 15 30.07 1018 7 11.26538 0.06 1.524
1:52 pm 13:52 Cloudy 65 18.3 55 12.8 70 70 N 6 9 30.06 1018 10 16.0934 0 0.0254
2:52 pm 14:52 Cloudy 67 19.4 56 13.3 68 68 VRB 7 11 30.05 1018 10 16.0934 0 0
3:52 pm 15:52 Mostly Cloudy 67 19.4 55 12.8 66 66 N 9 15 30.03 1017 10 16.0934 0 0
4:52 pm 16:52 Mostly Cloudy 68 20 57 13.9 68 68 N 8 13 30.04 1017 10 16.0934 0 0
5:52 pm 17:52 Mostly Cloudy 70 21.1 56 13.3 61 61 NW 9 15 30.04 1017 10 16.0934 0 0
6:52 pm 18:52 Mostly Cloudy 71 21.7 49 9.4 46 46 NW 8 13 30.05 1018 10 16.0934 0 0
7:52 pm 19:52 Partly Cloudy 69 20.6 56 13.3 63 63 Calm 30.07 1018 10 16.0934 0 0
8:52 pm 20:52 Partly Cloudy 68 20 58 14.4 70 70 SSE 3 6 30.09 1019 10 16.0934 0 0
9:52 pm 21:52 Mostly Cloudy 63 17.2 55 12.8 76 76 SW 3 6 30.12 1020 10 16.0934 0 0
10:52 pm 22:52 Mostly Cloudy 62 16.7 54 12.2 75 75 SW 3 6 30.13 1020 10 16.0934 0 0
11:52 pm 23:52 Mostly Cloudy 63 17.2 55 12.8 76 76 Calm 30.14 1021 10 16.0934 0 0

Powered by AerisWeather